Location: Marcé
(47.5801°N, 0.3280°W)
Time: 08:32:27
(UTC+01:00)

Courier 1B - Pass Details

Date: 09 December 2021
Orbit: 962 x 1209 km, 28.3° (Epoch: 23 January)

Event Time Altitude Azimuth Distance (km) Brightness Sun altitude
Rises 19:31:19 0° 246° (WSW) 4,034 12.0 -22.8°
Reaches altitude 10° 19:37:09 10° 212° (SSW) 3,005 10.5 -23.8°
Maximum altitude 19:38:40 11° 200° (SSW) 2,934 10.3 -24.1°
Drops below altitude 10° 19:40:11 10° 187° (S) 2,966 10.2 -24.3°
Enters shadow 19:45:28 - 154° (SSE) 3,776 10.4 -25.2°
Sets 19:45:46 0° 152° (SSE) 3,845 - -25.3°
